[[{"header":{"parameterUnit":"m.s-1","parameterCategory":1,"la1":30.2991,"la2":30.254,"lo1":-89.0895,"lo2":-89.0444,"dy":0.0017,"dx":0.0017,"nx":28,"ny":28,"refTime":"2024-04-19T03:00:00:Z","depth":0,"parameterNumber":2,"parameterNumberName":"U-component_of_WINDS"},"data":[0,0,0,0,0,0,0,0,0,0,0,0,0,0,0,0,0,0,0,0,0,0,0,0,0,0,0,0,0,0,0,0,0,0,0,0,0,0,0,0,0,0,0,0,0,0,0,0,0,0,0,0,0,0,0,0,0,0,0.3337,0.334,0,0.3604,0.3607,0.361,0.3738,0.3738,0.3738,0.3738,0.4014,0.4021,0.4028,0,0,0,0,0,0,0,0,0,0,0,0,0,0.2939,0.2946,0.3337,0.334,0.3344,0.3604,0.3607,0.3611,0.3738,0.3738,0.3738,0.3738,0.4011,0.402,0.4029,0,0,0,0,0,0,0,0,0,0,0,0,0,0.3149,0.2948,0.3336,0.3438,0.345,0.3603,0.3607,0.3612,0.3738,0.3738,0.3738,0.3738,0.4008,0.4019,0.403,0.4102,0,0,0.4064,0.4069,0,0,0,0,0,0,0,0,0.3137,0.3164,0.342,0.3432,0.3445,0.3638,0.3568,0.3776,0.3738,0.3629,0.3738,0.3738,0.3889,0.391,0.396,0.4115,0.4127,0.4065,0.4072,0.4077,0.408,0,0,0,0,0,0,0,0.3123,0.3153,0.3443,0.3424,0.3439,0.3471,0.3501,0.3608,0.3757,0.3638,0.3648,0.3678,0.3896,0.3949,0.3968,0.4131,0.4065,0.4075,0.4082,0.4086,0.4359,0.436,0,0,0,0,0,0,0.3091,0.314,0.3434,0.3451,0.3288,0.3479,0.3512,0.3576,0.3756,0.3783,0.3678,0.3683,0.393,0.3955,0.3978,0.4075,0.4077,0.4087,0.4094,0.4359,0.4359,0.436,0,0,0,0,0,0,0.3082,0.3116,0.3424,0.3298,0.334,0.3486,0.3557,0.3581,0.3635,0.3786,0.3813,0.3705,0.3931,0.3962,0.407,0.4086,0.4092,0.4102,0.4358,0.4359,0.436,0.4269,0,0,0,0,0,0,0.307,0.3112,0.3141,0.3298,0.3346,0.3511,0.3558,0.3587,0.3654,0.3663,0.3819,0.3844,0.3933,0.4053,0.4081,0.4102,0.4111,0.4357,0.4359,0.436,0.4271,0.4266,0.4262,0,0,0,0,0,0.3055,0.3105,0.3141,0.3176,0.3385,0.3511,0.3539,0.364,0.3654,0.3685,0.3781,0.3839,0.4079,0.4063,0.4096,0.412,0.4357,0.4358,0.4359,0.4273,0.4267,0.4262,0,0,0,0,0,0,0.2946,0.3127,0.317,0.3271,0.3375,0.3532,0.3574,0.363,0.3733,0.3737,0.3859,0.3893,0.399,0.4066,0.4044,0.42,0.4224,0.4232,0.4147,0.4142,0.4138,0.4118,0.412,0,0,0,0,0,0.2933,0.3021,0.3175,0.3249,0.3299,0.3427,0.3486,0.3554,0.3667,0.3712,0.3816,0.3924,0.4024,0.4087,0.4188,0.4282,0.4318,0.4315,0.431,0.4306,0.4312,0.4368,0.4369,0.4364,0.4364,0.4364,0,0,0.2909,0.3019,0.3067,0.323,0.3318,0.3406,0.3463,0.3554,0.3621,0.3726,0.3835,0.3915,0.4043,0.4144,0.4194,0.4211,0.4321,0.4308,0.4303,0.4312,0.437,0.437,0.437,0.4365,0.4365,0.4365,0,0,0.291,0.3001,0.3073,0.316,0.3293,0.3378,0.3395,0.3545,0.3602,0.3712,0.3793,0.3875,0.4044,0.4132,0.4199,0.4232,0.4289,0.4261,0.4239,0.4293,0.4293,0.4294,0.4307,0.431,0.4266,0.4266,0.4266,0,0.2863,0.2998,0.3104,0.319,0.326,0.3358,0.3433,0.3512,0.3671,0.3717,0.3733,0.3947,0.4041,0.4165,0.4172,0.4223,0.4247,0.4245,0.4284,0.4286,0.4289,0.4302,0.4307,0.4262,0.4262,0.4263,0.4263,0,0.2934,0.3027,0.307,0.322,0.3294,0.3374,0.3492,0.3555,0.3617,0.37,0.3812,0.3927,0.4052,0.4086,0.4148,0.4219,0.4225,0.4261,0.4288,0.4283,0.4298,0.4304,0.4256,0.4257,0.4258,0.426,0,0,0.2874,0.3081,0.3095,0.3165,0.3318,0.3392,0.3476,0.3598,0.365,0.3756,0.3831,0.3971,0.4005,0.4081,0.4153,0.42,0.422,0.4231,0.4235,0.4225,0.4306,0.4279,0.4283,0.4258,0.4259,0.4261,0.4296,0,0.2897,0.3052,0.3149,0.3266,0.3354,0.3448,0.3522,0.3624,0.3704,0.379,0.3879,0.3977,0.4013,0.406,0.411,0.4206,0.4238,0.4205,0.433,0.4333,0.4296,0.4291,0.4263,0.4291,0.4302,0.4303,0.4304,0,0.2944,0.3047,0.3172,0.3316,0.3356,0.3421,0.354,0.3621,0.3739,0.3794,0.3878,0.3951,0.4045,0.4063,0.4194,0.417,0.4227,0.4281,0.4285,0.4302,0.4319,0.4308,0.4302,0.4306,0.4314,0.4313,0.4313,0,0.2888,0.3058,0.3155,0.3212,0.3382,0.3425,0.3498,0.3616,0.3683,0.3788,0.3833,0.3947,0.4009,0.4096,0.4199,0.4202,0.432,0.4347,0.4369,0.4367,0.4391,0.4388,0.4395,0.4425,0.4425,0.4425,0.4425,0,0.2904,0.2977,0.3133,0.3192,0.3277,0.3388,0.3469,0.355,0.3654,0.3732,0.382,0.3891,0.4021,0.4109,0.4189,0.4286,0.4314,0.4362,0.4382,0.4355,0.4348,0.4394,0.4395,0.4426,0.4426,0.4426,0.4426,0,0.2856,0.2963,0.3076,0.3227,0.3267,0.3323,0.3453,0.3515,0.3599,0.3696,0.3726,0.3858,0.3965,0.4076,0.4221,0.4275,0.437,0.4398,0.433,0.4342,0.4359,0.4356,0.4396,0.4407,0.4428,0.4427,0.4427,0,0.2859,0.2918,0.3075,0.3133,0.3204,0.3296,0.3365,0.3477,0.3545,0.3684,0.3729,0.3843,0.394,0.4107,0.4217,0.4329,0.4361,0.4367,0.4378,0.4349,0.4362,0.4358,0.4365,0.4363,0.4362,0.4362,0.4361,0,0.2854,0.2904,0.2999,0.3113,0.3193,0.3288,0.3387,0.343,0.3561,0.3633,0.3743,0.3818,0.3966,0.4079,0.4203,0.428,0.4343,0.4356,0.4368,0.434,0.4299,0.4323,0.432,0.4355,0.4356,0.4356,0.4357,0.4357,0.2833,0.2889,0.3009,0.3113,0.3198,0.3289,0.3354,0.3446,0.354,0.3669,0.373,0.384,0.3958,0.4132,0.4207,0.4296,0.4313,0.4329,0.4334,0.4336,0.433,0.4283,0.4319,0.4319,0.4319,0.432,0.432,0,0.2833,0.2914,0.3008,0.3143,0.3225,0.3276,0.3388,0.3453,0.3549,0.3653,0.3746,0.3873,0.3983,0.41,0.4217,0.4266,0.4297,0.4292,0.4291,0.4307,0.4307,0.4286,0.4265,0.4265,0.4265,0.4265,0.4265,0.4265,0.2842,0.294,0.3005,0.3147,0.3229,0.3337,0.3397,0.3481,0.3564,0.3702,0.3793,0.3869,0.3979,0.4104,0.4207,0.4239,0.4278,0.4265,0.4305,0.4303,0.4307,0.4311,0.4292,0.4272,0.4272,0.4299,0.4299,0.4299]},{"header":{"parameterUnit":"m.s-1","parameterCategory":1,"la1":30.2991,"la2":30.254,"lo1":-89.0895,"lo2":-89.0444,"dy":0.0017,"dx":0.0017,"nx":28,"ny":28,"refTime":"2024-04-19T03:00:00:Z","depth":0,"parameterNumber":3,"parameterNumberName":"V-component_of_WINDS"},"data":[0,0,0,0,0,0,0,0,0,0,0,0,0,0,0,0,0,0,0,0,0,0,0,0,0,0,0,0,0,0,0,0,0,0,0,0,0,0,0,0,0,0,0,0,0,0,0,0,0,0,0,0,0,0,0,0,0,0,4.3366,4.3364,0,4.3184,4.3182,4.318,4.312,4.3121,4.3121,4.3122,4.2926,4.292,4.2914,0,0,0,0,0,0,0,0,0,0,0,0,0,4.3654,4.3649,4.3366,4.3364,4.3361,4.3184,4.3182,4.3179,4.312,4.3121,4.3122,4.3123,4.2928,4.2921,4.2914,0,0,0,0,0,0,0,0,0,0,0,0,0,4.3506,4.3647,4.3366,4.3311,4.3304,4.3185,4.3181,4.3178,4.3119,4.3121,4.3122,4.3123,4.293,4.2922,4.2913,4.2833,0,0,4.2885,4.2882,0,0,0,0,0,0,0,0,4.3514,4.3495,4.3321,4.3314,4.3307,4.3176,4.3211,4.3062,4.3119,4.3189,4.3122,4.3124,4.3008,4.2992,4.2955,4.2824,4.2815,4.2885,4.2879,4.2875,4.2873,0,0,0,0,0,0,0,4.3524,4.3502,4.3294,4.3319,4.331,4.3292,4.3272,4.3182,4.3093,4.3183,4.3178,4.3158,4.3004,4.2964,4.295,4.2812,4.2885,4.2877,4.2871,4.2868,4.2606,4.2604,0,0,0,0,0,0,4.3545,4.3511,4.3299,4.3288,4.3416,4.3286,4.3264,4.3216,4.3094,4.3077,4.3157,4.3156,4.2979,4.2961,4.2943,4.2842,4.2875,4.2867,4.2862,4.2607,4.2606,4.2604,0,0,0,0,0,0,4.3552,4.3527,4.3307,4.3398,4.3369,4.328,4.3227,4.3212,4.3173,4.3075,4.3058,4.3134,4.2979,4.2956,4.2861,4.2834,4.2863,4.2855,4.2609,4.2607,4.2605,4.2639,0,0,0,0,0,0,4.356,4.353,4.35,4.3398,4.3365,4.3231,4.3225,4.3208,4.3158,4.3155,4.3048,4.3032,4.2978,4.2875,4.2853,4.2822,4.2848,4.2611,4.2608,4.2605,4.264,4.2638,4.2636,0,0,0,0,0,4.3571,4.3515,4.3499,4.3474,4.3327,4.3229,4.321,4.3152,4.3156,4.3125,4.3062,4.3035,4.2841,4.2866,4.284,4.2807,4.2613,4.2609,4.2606,4.264,4.2638,4.2636,0,0,0,0,0,0,4.3612,4.35,4.3482,4.3392,4.3321,4.322,4.3178,4.3152,4.3075,4.3075,4.3004,4.298,4.2891,4.2839,4.2869,4.2723,4.2725,4.2716,4.2761,4.2758,4.2756,4.277,4.284,0,0,0,0,0,4.3611,4.3545,4.345,4.3379,4.3345,4.3268,4.3224,4.3186,4.3108,4.3077,4.3007,4.293,4.2852,4.2802,4.2724,4.2632,4.2607,4.2596,4.2594,4.2593,4.2586,4.2534,4.2528,4.2592,4.2592,4.2592,0,0,4.3608,4.3539,4.35,4.3386,4.3327,4.3257,4.3243,4.3169,4.3116,4.3064,4.2973,4.2919,4.2828,4.2735,4.269,4.2689,4.2563,4.2589,4.2589,4.2582,4.253,4.2524,4.2518,4.259,4.259,4.2591,0,0,4.3566,4.3508,4.3444,4.3385,4.3297,4.3247,4.3231,4.3134,4.3097,4.3005,4.2965,4.2899,4.2765,4.2703,4.2654,4.259,4.2562,4.2567,4.2558,4.2507,4.2502,4.2498,4.2475,4.2468,4.256,4.256,4.256,0,4.3572,4.3469,4.3413,4.3343,4.3293,4.3247,4.318,4.3124,4.3014,4.298,4.298,4.2813,4.2748,4.264,4.2626,4.2587,4.2566,4.2578,4.2508,4.2503,4.2497,4.2475,4.2467,4.2561,4.2561,4.2561,4.2561,0,4.3481,4.341,4.3368,4.3267,4.3213,4.3144,4.3075,4.3026,4.2993,4.2942,4.2847,4.2769,4.2675,4.2646,4.2612,4.2533,4.2535,4.2523,4.2524,4.2494,4.2472,4.2463,4.2563,4.2562,4.2562,4.2562,0,0,4.346,4.3331,4.3316,4.327,4.317,4.3112,4.3041,4.2953,4.2913,4.2838,4.2775,4.2664,4.2653,4.2597,4.2555,4.2511,4.2467,4.2504,4.2501,4.25,4.2375,4.2386,4.2377,4.2448,4.2446,4.2444,4.2383,0,4.3406,4.3281,4.3229,4.3127,4.306,4.3015,4.2953,4.2883,4.2833,4.2767,4.271,4.2633,4.2624,4.259,4.2545,4.2482,4.2441,4.2485,4.2387,4.2384,4.2412,4.2365,4.2375,4.2322,4.2374,4.2372,4.2371,0,4.3326,4.3256,4.3149,4.3058,4.3028,4.2974,4.2889,4.2827,4.2746,4.2713,4.2652,4.2613,4.2534,4.2541,4.243,4.2462,4.2419,4.2382,4.2378,4.2367,4.2376,4.2353,4.2303,4.2295,4.2357,4.2358,4.2359,0,4.3323,4.32,4.312,4.3082,4.2974,4.2937,4.289,4.2811,4.2762,4.2687,4.2654,4.2569,4.2523,4.2457,4.2395,4.2406,4.2291,4.2292,4.2259,4.2261,4.2237,4.224,4.218,4.2209,4.2209,4.2209,4.2209,0,4.3268,4.3204,4.3118,4.3069,4.2995,4.2935,4.2863,4.2811,4.2742,4.268,4.2635,4.2577,4.2499,4.2431,4.2381,4.2298,4.2277,4.2246,4.2234,4.2251,4.2255,4.2221,4.2223,4.2207,4.2207,4.2208,4.2208,0,4.3251,4.3191,4.3102,4.3008,4.2983,4.2933,4.2851,4.2801,4.275,4.2672,4.265,4.2568,4.2486,4.2418,4.2309,4.2275,4.2188,4.2174,4.2217,4.2211,4.2182,4.2186,4.2099,4.2085,4.2123,4.2123,4.2123,0,4.3221,4.3172,4.3074,4.3032,4.2986,4.2917,4.2868,4.2806,4.2755,4.2661,4.2622,4.2537,4.2466,4.2336,4.2264,4.2181,4.2164,4.2139,4.2151,4.217,4.2164,4.2168,4.2163,4.2138,4.2138,4.2138,4.2138,0,4.3174,4.3147,4.308,4.3002,4.2946,4.288,4.2813,4.278,4.2705,4.265,4.2568,4.2513,4.2404,4.2319,4.2228,4.2176,4.2144,4.2135,4.2123,4.214,4.2167,4.2153,4.2215,4.2137,4.2137,4.2137,4.2137,4.2137,4.3149,4.3104,4.3029,4.2955,4.29,4.2839,4.2787,4.2731,4.2662,4.2571,4.2537,4.2452,4.2372,4.2248,4.2195,4.2126,4.2122,4.2105,4.21,4.2097,4.21,4.2179,4.2109,4.2109,4.2109,4.2109,4.2109,0,4.31,4.305,4.2984,4.2894,4.2836,4.2814,4.274,4.2691,4.2619,4.2549,4.2481,4.2386,4.2304,4.2228,4.2142,4.2101,4.2084,4.2081,4.2083,4.2072,4.2108,4.2127,4.2096,4.2096,4.2096,4.2096,4.2096,4.2096,4.3068,4.299,4.2955,4.2848,4.2797,4.2717,4.2677,4.262,4.2564,4.2461,4.2395,4.2347,4.2273,4.2182,4.2106,4.2085,4.2056,4.2056,4.2032,4.2067,4.2069,4.2071,4.2089,4.205,4.205,4.2001,4.2001,4.2]}]]